LUCH 5B (SDCM/PRN 125)

Last updated on Thu Aug 20 2026 00:03:26 GMT+0000 (Coordinated Universal Time)

1 38977U 12061A 26230.77037997 -.00000143 00000+0 00000+0 0 9993 2 38977 10.6160 49.2450 0004734 153.1080 25.9017 1.00273250 50234
UTC large
Height (km)
Speed (km/s)
/
Latitude / Longitude
Inclination (degrees)
Orbital Period (minutes)
Azimuth
Elevation
Range (km)
Doppler Factor

Next 0 passes for location: London (51.5072 / 0.1276)

No passes found over London.
LUCH 5B (SDCM/PRN 125)